Location: Newark
(35.8833°N, 14.5000°E)
Time: 05:15:20
(UTC+00:00)

ISS - Visible Passes

Search period start: 21 May 2019 00:00
Search period end: 31 May 2019 00:00
Orbit: 407 x 410 km, 51.6° (Epoch: 21 May)

Date Brightness Start Highest point End Pass type
(mag) Time Alt. Az. Time Alt. Az. Time Alt. Az.
21 May -1.6 01:46:09 18° ESE 01:46:09 18° ESE 01:47:08 10° SE visible
21 May -0.4 19:58:12 10° NW 19:59:32 12° NNW 20:00:52 10° N visible
22 May -0.7 19:06:01 10° WNW 19:08:19 17° NNW 19:10:38 10° NNE visible
26 May -0.2 22:12:00 10° NNW 22:12:04 10° NNW 22:12:04 10° NNW visible
27 May -0.6 21:21:44 10° N 21:22:41 12° NNE 21:22:41 12° NNE visible
28 May -0.3 22:05:56 10° NNW 22:06:01 10° NNW 22:06:01 10° NNW visible
29 May -1.0 21:15:14 10° NNW 21:16:41 18° N 21:16:41 18° N visible
30 May -1.2 20:24:44 10° N 20:26:36 14° NNE 20:27:21 13° NE visible
